Voltar ao catálogo

NOAA 16 DEB

AtivoSSO
NORAD 42363·DEBRIS·🇺🇸 United States

Lançado Sep 21, 2000 de Vandenberg Space Force Base

Loading…

Próximas Passagens (próximas 24 horas)

TLE

AtualizadoSource: Space-Track

Época: Sep 12, 2026, 05:44 UTC

1 42363U 00055RF  26255.23906092  .00002065  00000-0  10703-2 0  9995
2 42363  98.8005 255.9473 0062385 139.5151 221.0688 14.14933768540736

Acompanhe NOAA 16 DEB em tempo real com AllMySat

Download on the App Store